Regional Weather Roundup
Issued by NWS Grand Forks, ND

Home | Current Version | Previous Version | Graphics & Text | Print | Product List | Glossary On
Versions: 1 2 3 4 5 6 7 8 9 10 11 12 13 14 15 16 17 18 19 20 21 22 23 24 25 26 27 28 29 30 31 32 33 34 35 36 37 38 39 40 41 42 43 44 45 46 47 48 49 50
000
ASUS43 KFGF 190331
RWRFGF
PRAIRIE TO PINES  WEATHER ROUNDUP
NATIONAL WEATHER SERVICE EASTERN NORTH DAKOTA/GRAND FORKS ND
900 PM CST THU DEC 18 2014

 **SATELLITE DATA USED TO AUGMENT SKY COVER AT AUTOMATED STATIONS**
 *****  WEATHER ACROSS EASTERN NORTH DAKOTA  *****

CITY           SKY/WX    TMP DP  RH WIND       PRES   REMARKS
GRAND FORKS    CLOUDY    20  15  81 S9        30.15S WCI   9
GRAND FRKS AFB CLOUDY    19  19  99 S10       30.14F WCI   8
DEVILS LAKE    CLOUDY    21  14  73 S10       30.03S WCI  10
FARGO          CLOUDY    21  16  81 S12       30.16F WCI   9
WAHPETON ARPT  CLOUDY    21  18  86 S8        30.18S WCI  12
$$

 ***** WEATHER ACROSS CENTRAL AND WESTERN NORTH DAKOTA  *****

CITY           SKY/WX    TMP DP  RH WIND       PRES   REMARKS
BISMARCK       CLOUDY    27  25  92 S3        30.03S
MINOT          CLOUDY    24  20  84 CALM      29.97F
JAMESTOWN      CLOUDY    23  21  92 S12       30.06F WCI  12
MINOT AFB      CLOUDY    23  23 100 SE3       29.97F
GARRISON         N/A     26  23  88 E3        29.96F
WILLISTON      CLOUDY    28  27  96 S5        29.94S WCI  23
DICKINSON      CLEAR     23  20  88 S7        29.91F WCI  15
HETTINGER      CLEAR     21  20  96 CALM      29.96F
$$

 *****  OTHER AIRPORT OBSERVATIONS IN OUR AREA  *****

CITY           SKY/WX    TMP DP  RH WIND       PRES   REMARKS
WALHALLA         N/A     18  18 100 SE7       30.11S WCI   8
GRAFTON AIRPOR NOT AVBL
VALLEY CITY AR CLOUDY    19  19 100 S8        30.10R WCI   9
CANDO          CLOUDY    21  19  93 S8        30.04S FOG     WCI  12
CAVALIER APRT  CLOUDY    19  16  86 S9        30.12F WCI   9
GWINNER        CLOUDY    25  25 100 MISG      30.13S
SHEYENNE NWR     N/A     20  17  87 S7        29.95S WCI  11
ROLLA          FOG       19  19 100 S10       30.01S VSB 3/4 WCI   8
 ***** THE ABOVE OBSERVATIONS ARE NON NWS ARE NOT QUALITY
       CONTROLLED AND MAY MIS-REPORT RAIN FOR SNOW...
$$

  *****  WEATHER ACROSS NORTHERN MINNESOTA  *****

CITY           SKY/WX    TMP DP  RH WIND       PRES   REMARKS
FLAG ISLAND    CLOUDY    18  14  86 S12       30.17S WCI   5
WARROAD        PTCLDY    12   9  85 SE5       30.18S WCI   4
ROSEAU         CLOUDY    18  12  79 SE6       30.16S WCI   9
HALLOCK        CLOUDY    19  18  93 S13       30.14S WCI   7
THF RVR FALLS  CLOUDY    21  16  79 S9        30.15S WCI  11
BAUDETTE       CLOUDY    19  14  81 S6        30.18S WCI  11
WASKISH        CLOUDY    19  16  86 CALM      30.19S
CROOKSTON      CLOUDY    19  18  93 S10       30.17S WCI   8
STEPHEN NDAWN    N/A     19  16  86 S12         N/A  WCI   7
GREENBUSH NDAW   N/A     19  16  86 SE8         N/A  WCI   9
$$
  *****  WEATHER ACROSS CENTRAL AND WEST MINNESOTA  *****

CITY           SKY/WX    TMP DP  RH WIND       PRES   REMARKS
FOSSTON        CLOUDY    18  16  93 SE8       30.16S WCI   7
BEMIDJI        CLOUDY    17  14  88 SE7       30.17S WCI   8
PARK RAPIDS    CLOUDY    18  14  84 SE12      30.17S WCI   5
ELBOW LAKE     CLOUDY    19  15  86 S14       30.18S WCI   5
WADENA         CLOUDY    18  14  86 NW9       30.18S WCI   6
DETROIT LAKES  CLOUDY    21  18  86 SE10      30.17R WCI  10
MOORHEAD       CLOUDY    21  19  93 S15       30.18S WCI   8
FERGUS FALLS   CLOUDY    19  14  79 S14       30.21S WCI   6
MORRIS MN      CLEAR     19  18  93 SE10      30.18F WCI   8
STAPLES        CLOUDY    18  14  86 SE6       30.20S WCI   9
$$
  *****  WEATHER ELSEWHERE ACROSS MINNESOTA  *****

CITY           SKY/WX    TMP DP  RH WIND       PRES   REMARKS
DULUTH         CLOUDY    24  17  74 SE6       30.21R WCI  17
INTRNTL FALLS  CLOUDY    20  17  88 SE5       30.20F WCI  13
ELY            CLOUDY    21  19  93 CALM      30.20F
CLOQUET        CLOUDY    21  18  86 S5        30.22S WCI  15
WHEATON        CLOUDY    18  16  93 SE13      30.20S WCI   4
BRAINERD       CLOUDY    19  15  84 S6        30.22S WCI  11
HIBBING        CLOUDY    23  16  74 S7        30.21R WCI  15
ALEXANDRIA     CLOUDY    19  14  81 SE10      30.19S WCI   7
SAINT CLOUD    CLOUDY    21  14  74 S6        30.23F WCI  13
MINNEAPOLIS    CLOUDY    21  14  74 S6        30.27F WCI  13
$$

  *****  WEATHER ACROSS SOUTH DAKOTA  *****

CITY           SKY/WX    TMP DP  RH WIND       PRES   REMARKS
SIOUX FALLS    CLOUDY    27  23  85 S9        30.17S WCI  18
BROOKINGS      NOT AVBL
WATERTOWN      CLOUDY    24  22  91 S9        30.12S FOG     WCI  14
HURON          CLOUDY    26  23  88 S9        30.13F WCI  17
SISSETON         N/A     21  19  92 S9        30.15F WCI  11
ABERDEEN       CLOUDY    26  23  88 S12       30.12S WCI  16
MITCHELL       CLOUDY    28  25  88 S9        30.16S WCI  19
PIERRE         PTCLDY    23  21  92 S7        30.07S WCI  15
MOBRIDGE       CLEAR     24  22  91 S6        30.03R WCI  17
RAPID CITY     CLEAR     22  19  89 CALM      30.01R
$$

  *****  SOME WEATHER IN NEARBY STATES *****

CITY           SKY/WX    TMP DP  RH WIND       PRES   REMARKS
GLASGOW MT     PTCLDY    21  19  92 CALM      29.90F
GREAT FALLS MT PTCLDY    34  26  72 SW15      29.91S WCI  24
CHEYENNE WY    MOCLDY    29  15  56 SW9       30.06R WCI  20
SCOTTSBLUFF NE CLOUDY    12   9  87 N5        30.08R FOG     WCI   4
OMAHA NE       CLOUDY    31  27  85 S8        30.25R WCI  23
DES MOINES IA  CLOUDY    28  22  78 SE6       30.26S WCI  22
DAVENPORT IA   CLEAR     21  15  78 CALM      30.28S
CHICAGO IL     CLOUDY    28  20  71 NW6       30.25R WCI  22
EAU CLAIRE WI  CLOUDY    24  18  77 VRB3      30.26S
LA CROSSE WI   CLOUDY    26  18  71 SE5       30.28S WCI  20
$$

  *****  SOME NATIONAL WEATHER *****

CITY           SKY/WX    TMP DP  RH WIND       PRES   REMARKS
LA GUARDIA NY  PTCLDY    38  27  64 W14       29.97R
RALEIGH NC     MOCLDY    42  29  59 CALM      30.10F
ATLANTA GA     MOCLDY    43  33  68 NW7       30.15R
NEW ORLEANS LA LGT RAIN  59  54  83 NE8       30.14S
OKLAHOMA CITY  CLOUDY    41  37  87 NE10      30.19F FOG
ALBUQUERQUE NM CLOUDY    39  28  64 CALM      30.13R
SALT LAKE CITY PTCLDY    35  30  82 S5        30.17S
LOS ANGELES CA PTCLDY    56  52  86 VRB3      30.19R
BOISE ID       MOCLDY    43  33  68 E9        30.08F
SEATTLE WA     CLOUDY    47  40  76 E10       29.74F
$$

*** WEATHER ACROSS MANITOBA...SASKATCHEWAN AND ONTARIO ***
                ***ONTARIO***

CITY           SKY/WX    TMP DP  RH WIND       PRES   REMARKS
GERALDTON      CLEAR     -6  -9  84 W1        30.25F
THUNDER BAY    CLEAR      0  -2  92 W5        30.31S WCI -10
SIOUX LOOKOUT  FLURRIES  12  10  92 S8        30.22S WCI   1
TORONTO        CLOUDY    25  21  86 NW16G24   30.10S WCI  12
BIG TROUT LK   CLEAR      1  -2  85 SW7       30.17S WCI -11
PICKLE LAKE    NOT AVBL
DRYDEN         CLOUDY    18  16  93 S6        30.19F WCI   9
KENORA         CLOUDY    14  10  85 S9        30.16S WCI   2
$$
                *** MANITOBA***

CITY           SKY/WX    TMP DP  RH WIND       PRES   REMARKS
BRANDON        FLURRIES  19  16  86 S5        30.03F WCI  13
DAUPHIN        CLOUDY    14  10  85 S3        30.03F
ISLAND LAKE    CLEAR     10   7  85 S5        30.10S WCI   2
PILOT MOUND      N/A     19  18  93 S13         N/A  WCI   7
THE PAS        FLURRIES  14  12  92 S8        29.97F WCI   3
THOMPSON       FLURRIES   7   3  85 S6        30.00S WCI  -3
WINNIPEG       CLOUDY    19  14  79 S15       30.14S WCI   5
LYNN LAKE      FLURRIES  14  12  92 SW7       29.88S WCI   4
CHURCHILL      CRYSTALS   1   0  92 S6        29.99S WCI -10
GILLAM         LGT SNOW   5   1  85 SW10      30.03S WCI -10
$$
                ***SASKATCHEWAN***

CITY           SKY/WX    TMP DP  RH WIND       PRES   REMARKS
ESTEVAN        LGT SNOW  25  23  93 SW2       29.93F FOG
KINDERSLEY     FOG       12   9  85 VRB2      29.88S VSB 1/8
LLOYDMINSTER   FOG       16  12  86 W3        29.86F VSB 1/8
PRINCE ALBERT  FLURRIES  19  18  93 NW6       29.90S WCI  11
REGINA         CLOUDY    25  25 100 S7        29.90S FOG     WCI  17
YORKTON        CLOUDY    18  14  86 SE8       29.94F WCI   7
N. BATTLEFORD  CLOUDY    18  18 100 W7        29.91S FOG     WCI   8
LA RONGE       CLOUDY    18  14  86 W5        29.90S WCI  11
SASKATOON      FLURRIES  19  19 100 NW8       29.91R WCI   9
SWIFT CURRENT  CLOUDY    21  21 100 SW9       29.84S WCI  11
$$
NOTE: THESE ARE AUTOMATED STATIONS WITH LIMITED QUALITY CONTROL
      "FAIR" INDICATES FEW OR NO CLOUDS BELOW 12,000 FEET WITH NO
      SIGNIFICANT WEATHER AND/OR OBSTRUCTIONS TO VISIBILITY.
      SKY/WX - SKY CONDITION AND SIGNIFICANT WEATHER.
      TMP - AIR TEMPERATURE.    DP   - DEWPOINT TEMPERATURE.
      RH  - RELATIVE HUMIDITY.  PRES - PRESSURE.
      HX  - HEAT INDEX.         WCI  - WIND CHILL INDEX.
$


USA.gov is the U.S. government's official web portal to all federal, state and local government web resources and services.